logo
App data

Blob From Space

Blob From Space is a 2d side scroller game. Difficulty will change when progressing. Try to survive many challenges with only 3 continues! Let the rage begin!
Store | Hub | SteamDB | Site
Developer: JosPlays Publisher: KISS ltd
Genre: Casual, Indie, Early Access
Languages: English
Tags: Early Access (28), Casual (25), Indie (24), Platformer (10)
Category: Single-player, Steam Achievements, Full controller support, Steam Trading Cards, Steam Workshop, Steam Cloud
Release date: Oct 15, 2014
Price: $5.99
Old userscore: 23% Owners: 20,000 .. 50,000
Peak concurrent players yesterday: 2
Playtime in the last 2 weeks: 03:11 (average) 03:24 (median)
Playtime total: 05:42 (average) 06:33 (median)

Steam Spy is still in beta, so expect major bugs.

Owners data:

Access restricted.

This feature is only available to users with special access rights. Sorry.

If you want to proceed, you need to register or log in first and then back Steam Spy on Patreon. Look for Indie or Pro pledge.

Don't forget to use the same email as on Steam Spy!

Audience in 2 weeks:

Access restricted.

This feature is only available to users with special access rights. Sorry.

If you want to proceed, you need to register or log in first and then back Steam Spy on Patreon. Look for Indie or Pro pledge.

Don't forget to use the same email as on Steam Spy!

Peak daily concurrent players:

CCU data courtesy of SteamDB. Used with permission.

Hourly concurrent players:

Daily Twitch stats:

Hourly Twitch stats:

YouTube:

The views data is based on top 50 videos uploaded last week. Actual number of views might be more than the number shown.

The displayed number of videos uploaded yesterday is limited to 50, so if there were more videos uploaded, the number will still show 50.

If the game has commonly used word as its name (like "FEAR" or "Volume") its number of Youtube views might be wrong.

Games similar to this one:

# Game Release date
Price
Score rank
(Userscore / Metascore)
Owners
Players
Playtime (Median)
1 Night Blights Apr 15, 2016 $4.99100% (100%)0 .. 20,0000%00:00 (00:00)
2 Everyday Genius: SquareLogic Oct 9, 2009 $4.9997% (97%)0 .. 20,0000%00:00 (00:00)
3 Moonlight Feb 5, 2016 $2.9993% (95%)0 .. 20,0000%00:00 (00:00)
4 Unium Mar 27, 2015 $1.9993% (95%)20,000 .. 50,0000%00:00 (00:00)
5 Divide By Sheep Jul 2, 2015 $4.9993% (95%/83%)100,000 .. 200,0000.56%00:09 (00:03)
6 Mevo and The Grooveriders Mar 20, 2009 $9.99N/A (N/A)0 .. 20,0000%00:00 (00:00)
7 Cloudberry Kingdom Aug 2, 2013 $9.9983% (92%/67%)20,000 .. 50,0000%00:00 (00:00)
8 Koala Kids Jun 22, 2015 $0.9979% (91%)20,000 .. 50,0000%00:00 (00:00)
9 Gigachess Dec 15, 2015 $3.99N/A (N/A)0 .. 20,0000%00:00 (00:00)
10 Estiman Nov 23, 2016 $0.99N/A (N/A)0 .. 20,0000%00:00 (00:00)
11 The Way We All Go Mar 24, 2015 $5.9976% (90%)0 .. 20,0000%00:00 (00:00)
12 This Starry Midnight We Make Jun 1, 2015 $9.99N/A (N/A)0 .. 20,0000%00:00 (00:00)
13 In Between Aug 21, 2015 $11.9970% (88%/68%)50,000 .. 100,0000%00:00 (00:00)
14 Forgotten, Not Lost - A Kinetic Novel Apr 1, 2016 $1.9970% (88%)50,000 .. 100,0003.45%04:42 (03:13)
15 Lobotomy Corporation | Monster Management Simulation Apr 9, 2018 $24.9970% (88%)50,000 .. 100,00028.57%07:52 (09:15)
16 Rooms: The Unsolvable Puzzle May 1, 2015 $14.9970% (88%/66%)0 .. 20,0000%00:00 (00:00)
17 Security Hole Sep 28, 2016 $9.9968% (87%)0 .. 20,0000%00:00 (00:00)
18 Masochisia Oct 9, 2015 $7.9968% (87%/68%)0 .. 20,0000%00:00 (00:00)
19 Anode Oct 5, 2015 $3.9965% (86%)0 .. 20,0000%00:00 (00:00)
20 Alpha Runner Sep 2, 2015 $0.4965% (86%)50,000 .. 100,0000%00:00 (00:00)
21 Project Starship Apr 5, 2016 $0.9960% (84%)200,000 .. 500,0000.36%02:06 (02:13)
22 Governor of Poker 2 - Premium Edition Oct 11, 2010 $14.9960% (84%)20,000 .. 50,0000%00:00 (00:00)
23 Sentinel 4: Dark Star Aug 13, 2015 $6.99N/A (N/A)0 .. 20,0000%00:00 (00:00)
24 Crash Drive 2 May 28, 2015 $4.9957% (83%)50,000 .. 100,0000%00:00 (00:00)
25 Cute Things Dying Violently Sep 2, 2015 $2.9957% (83%)0 .. 20,0000%00:00 (00:00)
26 Star Sky - ブルームーン Oct 23, 2015 $0.9953% (81%)0 .. 20,0000%00:00 (00:00)
27 Space Drifters 2D Mar 28, 2016 $0.99N/A (N/A)0 .. 20,0000%00:00 (00:00)
28 Collisions Jul 28, 2015 $3.9953% (81%)20,000 .. 50,0000%00:00 (00:00)
29 Stay Alight Mar 2, 2015 $3.9953% (81%)20,000 .. 50,0000%00:00 (00:00)
30 CAPSULE May 29, 2014 $4.9948% (79%)0 .. 20,0000%00:00 (00:00)
31 Egg Returns Home May 5, 2015 $1.9948% (79%)20,000 .. 50,0000%00:00 (00:00)
32 The Last NightMary - A Lenda do Cabeça de Cuia Nov 2, 2015 $0.5148% (79%)50,000 .. 100,0000.94%02:02 (00:40)
33 GamersGoMakers Aug 8, 2014 $9.9948% (79%)0 .. 20,0000%00:00 (00:00)
34 Automation - The Car Company Tycoon Game Mar 12, 2015 $29.9948% (79%)50,000 .. 100,0008.33%02:33 (00:51)
35 Iron Sea Defenders Sep 9, 2016 $0.49N/A (N/A)20,000 .. 50,0000.81%03:14 (01:25)
36 Particulars Nov 19, 2014 $5.9946% (78%/74%)20,000 .. 50,0000%00:00 (00:00)
37 Paranormal State: Poison Spring Apr 9, 2014 $9.9946% (78%)20,000 .. 50,0000%00:00 (00:00)
38 Ionball 2: Ionstorm Jun 6, 2014 $4.9946% (78%/70%)200,000 .. 500,0000.66%02:54 (02:32)
39 Ancients of Ooga May 20, 2011 $9.99N/A (N/A)20,000 .. 50,0000%00:00 (00:00)
40 Keen Dreams Sep 28, 2015 $4.9946% (78%)50,000 .. 100,0000%00:00 (00:00)
41 MXGP - The Official Motocross Videogame Mar 28, 2014 $19.9946% (78%)20,000 .. 50,0000%00:00 (00:00)
42 Neon Prism Nov 18, 2016 $4.9944% (77%)50,000 .. 100,0000%00:00 (00:00)
43 Until I Have You Apr 4, 2016 $13.9944% (77%)0 .. 20,0000%00:00 (00:00)
44 Mayhem Intergalactic Jul 4, 2007 $9.99N/A (N/A)0 .. 20,0000%00:00 (00:00)
45 Alchemy Mysteries: Prague Legends Dec 22, 2014 $1.9943% (76%)100,000 .. 200,0000%00:00 (00:00)
46 Pixel Puzzles 2: Birds Feb 20, 2015 $1.4943% (76%)100,000 .. 200,0003.01%04:00 (05:41)
47 The Deletion Jul 30, 2015 $1.9943% (76%)20,000 .. 50,0000%00:00 (00:00)
48 Caravanserail Mar 10, 2016 $2.99N/A (N/A)0 .. 20,0000%00:00 (00:00)
49 BalanCity Sep 21, 2016 $7.9941% (75%)20,000 .. 50,0000%00:00 (00:00)
50 Riddles Of The Past Jul 22, 2016 $6.9937% (73%)0 .. 20,0000%00:00 (00:00)
51 Crashed Lander Feb 4, 2015 $4.99N/A (N/A)0 .. 20,0000%00:00 (00:00)
52 Viking Brothers Apr 23, 2014 $9.99N/A (N/A)0 .. 20,0000%00:00 (00:00)
53 Laserlife Sep 22, 2015 $14.9934% (71%)0 .. 20,0000%00:00 (00:00)
54 Strategy & Tactics: Dark Ages Aug 4, 2017 $14.9934% (71%)20,000 .. 50,0001.52%05:04 (01:41)
55 Crash Wheels Dec 14, 2016 $4.9934% (71%)0 .. 20,0004.55%10:07 (03:22)
56 Impossible Quest Jun 3, 2016 $1.9931% (69%)0 .. 20,0000%00:00 (00:00)
57 Wildlife Park 2 Jul 17, 2014 $6.9929% (68%)100,000 .. 200,0000%00:00 (00:00)
58 Cheesecake Cool Conrad Oct 8, 2014 $4.99N/A (N/A)0 .. 20,0000%00:00 (00:00)
59 Ace Of Words May 13, 2016 $4.9929% (68%)100,000 .. 200,0000.74%03:47 (02:31)
60 Mind Games Mar 4, 2016 $2.9928% (67%)0 .. 20,0000%00:00 (00:00)
61 Marble Duel Nov 12, 2015 $4.9928% (67%)100,000 .. 200,0001.87%02:49 (01:51)
62 Meadowland Oct 22, 2014 $0.99N/A (N/A)0 .. 20,0000%00:00 (00:00)
63 Reset 1-1 Aug 30, 2016 $1.9922% (62%)200,000 .. 500,0000.43%02:05 (02:24)
64 Won't You Be My Laser? Sep 2, 2016 $0.99N/A (N/A)0 .. 20,0000%00:00 (00:00)
65 Annie Amber Jun 17, 2016 $2.9922% (62%)0 .. 20,0000%00:00 (00:00)
66 Pixel Survivors May 5, 2016 $3.9920% (61%)50,000 .. 100,0000%00:00 (00:00)
67 Goodnight Butcher Dec 18, 2015 $1.99N/A (N/A)20,000 .. 50,0000%00:00 (00:00)
68 Metrocide Dec 15, 2014 $12.9919% (60%/68%)20,000 .. 50,0000%00:00 (00:00)
69 Hoplite Dec 14, 2016 $0.9919% (60%)50,000 .. 100,0000%00:00 (00:00)
70 Star Chronicles: Delta Quadrant Jul 7, 2015 $0.9917% (58%)200,000 .. 500,0000.39%00:42 (00:42)
71 Boss Monster Apr 28, 2016 $4.9917% (58%)20,000 .. 50,0000%00:00 (00:00)
72 Autocraft Sep 20, 2017 $9.9916% (57%)20,000 .. 50,0000%00:00 (00:00)
73 Hardware Engineering Sep 28, 2016 $5.9916% (57%)0 .. 20,0000%00:00 (00:00)
74 The Good Life Nov 21, 2014 $9.9913% (53%)0 .. 20,0000%00:00 (00:00)
75 Pointless Feb 22, 2016 Free13% (52%)0 .. 20,0000%00:00 (00:00)
76 Luke Sidewalker Dec 5, 2016 $0.9912% (51%)50,000 .. 100,0000.49%03:30 (01:10)
77 Cosmonautica Jul 31, 2015 $6.6912% (51%)100,000 .. 200,0000.83%00:01 (00:00)
78 Quantum Rush Champions Dec 4, 2014 $2.9911% (50%)20,000 .. 50,0000%00:00 (00:00)
79 Melting Hearts: Our Love Will Grow 2 Apr 29, 2016 $4.999% (46%)0 .. 20,0000%00:00 (00:00)
80 Autumn May 14, 2016 $2.99N/A (N/A)50,000 .. 100,0000%00:00 (00:00)
81 Evolution Jun 6, 2016 FreeN/A (N/A)0 .. 20,0000%00:00 (00:00)
82 White Mirror Jan 26, 2016 $0.496% (39%)200,000 .. 500,0000%00:00 (00:00)
83 Robot vs Birds Zombies Jul 23, 2015 $0.994% (31%)0 .. 20,0000%00:00 (00:00)
84 Guardians of Victoria Apr 29, 2016 $1.992% (23%)200,000 .. 500,0000.2%02:48 (01:09)
85 Space Beret Oct 25, 2016 $0.99N/A (N/A)100,000 .. 200,0000%00:00 (00:00)
86 Zombie Gotchi Mar 23, 2016 $9.99N/A (N/A)0 .. 20,0000%00:00 (00:00)
87 Plight of the Zombie Feb 22, 2016 $4.99N/A (N/A)0 .. 20,0000%00:00 (00:00)
88 The Battle for Sector 219 Jun 2, 2016 $6.99N/A (N/A)0 .. 20,0003.33%05:01 (01:40)
89 The Architect Jun 4, 2015 $2.99N/A (N/A)0 .. 20,0000%00:00 (00:00)
90 1953: NATO vs Warsaw Pact Dec 4, 2014 $19.99N/A (N/A)0 .. 20,0000%00:00 (00:00)
91 Tyler Jan 14, 2016 $2.99N/A (N/A)0 .. 20,0000%00:00 (00:00)
92 Robot Rescue Revolution Jul 11, 2014 $4.99N/A (N/A)20,000 .. 50,0000%00:00 (00:00)
93 Attempt[42] Dec 8, 2016 $2.99N/A (N/A)50,000 .. 100,0000%00:00 (00:00)
94 Yrminsul Mar 2, 2016 $9.99N/A (N/A)0 .. 20,0000%00:00 (00:00)
95 Crab Cakes Rescue Nov 14, 2014 $1.04N/A (N/A)50,000 .. 100,0002.02%03:08 (02:42)
96 Magic Box Jan 19, 2017 $0.99N/A (N/A)50,000 .. 100,0000%00:00 (00:00)
97 BomberZone Jun 10, 2016 $1.99N/A (N/A)20,000 .. 50,0000%00:00 (00:00)
98 Way to Go! Jun 8, 2015 $4.99N/A (N/A)0 .. 20,0000%00:00 (00:00)
99 Reigning Cats Aug 28, 2015 $1.99N/A (N/A)0 .. 20,0000%00:00 (00:00)
100 Airstrike HD Mar 23, 2016 $1.99N/A (N/A)100,000 .. 200,0000.51%04:31 (01:30)

Owners of this game also own:

Access restricted.

This feature is only available to users with special access rights. Sorry.

If you want to proceed, you need to register or log in first and then back Steam Spy on Patreon. Look for Indie or Pro pledge.

Don't forget to use the same email as on Steam Spy!

Playtime distribution:

Access restricted.

This feature is only available to users with special access rights. Sorry.

If you want to proceed, you need to register or log in first and then back Steam Spy on Patreon. Look for Indie or Pro pledge.

Don't forget to use the same email as on Steam Spy!

Playtime (2 weeks):

Access restricted.

This feature is only available to users with special access rights. Sorry.

If you want to proceed, you need to register or log in first and then back Steam Spy on Patreon. Look for Indie or Pro pledge.

Don't forget to use the same email as on Steam Spy!

User reviews:

Login required.

Please register or log in to see this information.